This is the latest recevied weather packets stored in our database for station/object KE4EST. If no packets are shown the sender has not sent any weather packets the latest 10 day(s).
| Time | Temp. | Humidity | Pressure | Rain* | Wind** | Luminosity | Snow |
|---|---|---|---|---|---|---|---|
| 1777422247 | 17.22° C | 91% | 1019.3 hPa | 0 mm | - | 0 W/m² | - |
| 1777421941 | 17.78° C | 91% | 1018.9 hPa | 0 mm | - | 0 W/m² | - |
| 1777421636 | 17.78° C | 90% | 1018.9 hPa | 0 mm | - | 1 W/m² | - |
| 1777421331 | 17.78° C | 90% | 1018.9 hPa | 0 mm | - | 1 W/m² | - |
| 1777421029 | 17.78° C | 89% | 1019.1 hPa | 0 mm | - | 2 W/m² | - |
| 1777420724 | 17.78° C | 89% | 1019.1 hPa | 0 mm | - | 3 W/m² | - |
| 1777420421 | 17.78° C | 89% | 1018.7 hPa | 0 mm | - | 3 W/m² | - |
| 1777420117 | 17.78° C | 89% | 1018.6 hPa | 0 mm | - | 2 W/m² | - |
| 1777419813 | 17.78° C | 90% | 1018.4 hPa | 0 mm | - | 3 W/m² | - |
| 1777419512 | 17.78° C | 89% | 1018.1 hPa | 0 mm | - | 6 W/m² | - |
| 1777419210 | 17.78° C | 89% | 1018.1 hPa | 0 mm | - | 6 W/m² | - |
| 1777418907 | 18.33° C | 89% | 1018.1 hPa | 0 mm | - | 7 W/m² | - |
| 1777418602 | 18.33° C | 88% | 1018.1 hPa | 0 mm | - | 18 W/m² | - |
| 1777418299 | 18.33° C | 88% | 1018.1 hPa | 0 mm | - | 31 W/m² | - |
| 1777417994 | 18.33° C | 88% | 1018.7 hPa | 0 mm | - | 30 W/m² | - |
| 1777417691 | 18.33° C | 88% | 1018.3 hPa | 0 mm | - | 32 W/m² | - |
| 1777417386 | 18.33° C | 88% | 1017.8 hPa | 0 mm | - | 19 W/m² | - |
| 1777417083 | 18.89° C | 88% | 1017.8 hPa | 0 mm | - | 13 W/m² | - |
| 1777416778 | 18.89° C | 86% | 1017.8 hPa | 0 mm | - | 23 W/m² | - |
| 1777416473 | 18.89° C | 86% | 1017.7 hPa | 0 mm | - | 42 W/m² | - |
| 1777416170 | 18.89° C | 85% | 1018.3 hPa | 0 mm | - | 47 W/m² | - |
| 1777415864 | 19.44° C | 85% | 1018.1 hPa | 0 mm | - | 39 W/m² | - |
| 1777415560 | 19.44° C | 85% | 1018.3 hPa | 0 mm | - | 32 W/m² | - |
| 1777415256 | 19.44° C | 84% | 1018.1 hPa | 0 mm | - | 57 W/m² | - |
| 1777414951 | 19.44° C | 85% | 1018.1 hPa | 0 mm | - | 47 W/m² | - |
* Rain latest hour (hover to see other rain measurements)
** Current wind speed in m/s (hover to see current wind gust speed)